Datum,Zeit,Temp. I.,Temp.,Temp. Sonne,Windchill X,Diff Temp.,Feuchte I.,Feuchte,Luftdruck,Regen,Wind,Richtung,Windb�en,W0
,,�C,�C,�C,�C,�C,%,%,hPa,mm,km/h,�,km/h,B0
#Calibrate=1.000 #Regen0=0mm #Location=365/365m #Baro_correction=43hPa #Station=Nexus
,,1,2,7,8,10,17,18,133,34,35,36,45,97
01.04.2018,00:00,23.3,0.0,-0.2,-0.6,0.0,38,0,993.7,0.000,0.0,180,0.0,3
01.04.2018,00:01,23.3,0.0,-0.2,-0.6,0.0,38,0,993.7,0.000,0.0,180,0.0,3
01.04.2018,00:05,23.3,0.0,-0.2,-0.6,0.0,38,0,993.7,0.000,0.0,180,0.0,3
01.04.2018,00:10,23.3,0.0,-0.2,-0.6,0.0,38,0,993.7,0.000,0.0,180,0.0,3
01.04.2018,00:15,23.2,0.0,-0.2,-0.5,0.0,38,0,993.7,0.000,0.0,180,0.0,3
01.04.2018,00:20,23.3,0.0,-0.1,-0.3,0.0,38,0,993.7,0.000,0.0,135,0.0,3
01.04.2018,00:25,23.2,0.0,0.0,0.0,0.0,38,0,993.7,0.000,0.0,135,0.0,3
01.04.2018,00:30,23.2,0.0,0.1,0.1,0.0,38,0,994.1,0.000,0.0,135,0.0,3
01.04.2018,00:35,23.2,0.0,0.3,0.3,0.0,38,0,994.1,0.000,0.0,135,0.0,3
01.04.2018,00:40,23.2,0.0,0.4,0.4,0.0,38,0,994.1,0.000,0.0,135,0.0,3
01.04.2018,00:45,23.2,0.0,0.8,0.8,0.0,38,0,994.1,0.000,0.0,22,0.0,3
01.04.2018,00:50,23.2,0.0,0.9,0.9,0.0,38,0,993.8,0.000,0.0,337,0.0,3
01.04.2018,00:55,23.2,0.0,1.4,1.4,0.0,38,0,993.8,0.000,0.0,360,0.0,3
01.04.2018,01:00,23.2,0.0,1.5,1.5,0.0,38,0,993.8,0.000,0.0,360,0.0,3
01.04.2018,01:05,23.2,0.0,1.7,1.7,0.0,38,0,993.8,0.000,0.0,22,0.0,3
01.04.2018,01:10,23.2,0.0,1.7,1.7,0.0,38,0,994.2,0.000,0.0,22,0.0,3
01.04.2018,01:15,23.2,0.0,1.7,1.7,0.0,38,0,994.2,0.000,0.0,22,0.0,3
01.04.2018,01:20,23.2,0.0,1.7,1.7,0.0,38,0,994.2,0.000,0.0,22,0.0,3
01.04.2018,01:25,23.2,0.0,1.6,1.6,0.0,38,0,994.2,0.000,0.0,337,0.0,3
01.04.2018,01:30,23.2,0.0,1.5,1.5,0.0,38,0,994.1,0.000,0.0,315,0.0,3
01.04.2018,01:35,23.2,0.0,1.3,1.3,0.0,38,0,994.1,0.000,0.0,67,0.0,3
01.04.2018,01:40,23.2,0.0,1.1,1.1,0.0,38,0,994.1,0.000,0.0,247,0.0,3
01.04.2018,01:45,23.2,0.0,0.9,0.9,0.0,38,0,994.1,0.000,0.0,112,0.0,3
01.04.2018,01:50,23.2,0.0,0.9,0.9,0.0,38,0,994.3,0.000,0.0,135,0.0,3
01.04.2018,01:55,23.2,0.0,0.9,0.9,0.0,38,0,994.3,0.000,0.0,135,0.0,3
01.04.2018,02:00,23.2,0.0,1.1,1.1,0.0,38,0,994.3,0.000,0.0,337,0.0,3
01.04.2018,02:05,23.2,0.0,1.5,1.5,0.0,38,0,994.3,0.000,0.2,292,2.9,3
01.04.2018,02:10,23.2,0.0,1.6,1.6,0.0,38,0,994.4,0.000,0.2,270,1.6,3
01.04.2018,02:15,23.2,0.0,1.9,1.9,0.0,38,0,994.4,0.000,0.2,292,0.0,3
01.04.2018,02:20,23.2,0.0,2.0,2.0,0.0,38,0,994.4,0.000,0.0,315,0.0,3
01.04.2018,02:25,23.2,0.0,2.1,2.1,0.0,38,0,994.4,0.000,0.0,315,0.0,3
01.04.2018,02:30,23.2,0.0,2.1,2.1,0.0,38,0,994.6,0.000,0.0,315,0.0,3
01.04.2018,02:35,23.2,0.0,2.1,2.1,0.0,38,0,994.6,0.000,0.0,315,0.0,3
01.04.2018,02:40,23.2,0.0,2.2,2.2,0.0,38,0,994.6,0.000,0.0,315,0.0,3
01.04.2018,02:45,23.1,0.0,2.4,2.4,0.0,38,0,994.6,0.000,0.0,135,0.0,3
01.04.2018,02:50,23.1,0.0,2.3,2.3,0.0,38,0,994.8,0.000,0.0,135,0.0,3
01.04.2018,02:55,23.1,0.0,2.4,2.4,0.0,38,0,994.8,0.000,0.0,180,0.0,3
01.04.2018,03:00,23.2,0.0,2.5,2.5,0.0,38,0,994.8,0.000,0.2,315,0.0,3
01.04.2018,03:05,23.1,0.0,2.6,2.6,0.0,38,0,994.8,0.000,0.2,315,1.6,3
01.04.2018,03:10,23.1,0.0,2.8,2.8,0.0,38,0,994.9,0.000,0.2,270,0.0,3
01.04.2018,03:15,23.1,0.0,3.1,3.1,0.0,38,0,994.9,0.000,0.2,157,0.0,3
01.04.2018,03:20,23.1,0.0,3.1,3.1,0.0,38,0,994.9,0.000,0.0,157,0.0,3
01.04.2018,03:25,23.1,0.0,3.0,3.0,0.0,38,0,994.9,0.000,0.0,157,0.0,3
01.04.2018,03:30,23.1,0.0,3.1,3.1,0.0,38,0,995.0,0.000,0.0,157,0.0,3
01.04.2018,03:35,23.1,0.0,3.1,3.1,0.0,38,0,995.0,0.000,0.0,157,0.0,3
01.04.2018,03:40,23.1,0.0,3.2,3.2,0.0,38,0,995.0,0.000,0.0,315,0.0,3
01.04.2018,03:45,23.1,0.0,3.4,3.4,0.0,38,0,995.0,0.000,0.2,315,0.0,3
01.04.2018,03:50,23.1,0.0,3.5,3.5,0.0,38,0,995.2,0.000,0.0,315,0.0,3
01.04.2018,03:55,23.1,0.0,3.6,3.6,0.0,38,0,995.2,0.000,0.0,270,2.1,3
01.04.2018,04:00,23.1,0.0,3.7,3.7,0.0,38,0,995.2,0.000,0.0,292,0.0,3
01.04.2018,04:05,23.0,0.0,3.8,3.8,0.0,38,0,995.2,0.000,0.2,292,0.0,3
01.04.2018,04:10,23.1,0.0,4.0,4.0,0.0,38,0,995.4,0.000,0.6,247,4.2,3
01.04.2018,04:15,23.0,0.0,4.4,4.4,0.0,38,0,995.4,0.000,1.4,67,5.0,3
01.04.2018,04:20,23.0,0.0,4.7,4.7,0.0,38,0,995.4,0.000,2.1,270,3.9,3
01.04.2018,04:25,23.0,0.0,4.8,4.8,0.0,38,0,995.4,0.000,1.8,112,8.5,3
01.04.2018,04:30,23.1,0.0,4.8,4.8,0.0,38,0,995.6,0.000,1.6,22,0.0,3
01.04.2018,04:35,23.0,0.0,4.7,4.7,0.0,38,0,995.6,0.000,1.3,315,2.9,3
01.04.2018,04:40,23.0,0.0,4.7,4.7,0.0,38,0,995.6,0.000,1.3,22,4.8,3
01.04.2018,04:45,23.0,0.0,4.9,4.9,0.0,38,0,995.6,0.000,1.1,225,1.9,3
01.04.2018,04:50,23.0,0.0,4.9,4.9,0.0,38,0,995.9,0.000,0.8,270,0.0,3
01.04.2018,04:55,23.0,0.0,5.1,5.1,0.0,38,0,995.9,0.000,1.3,247,3.5,3
01.04.2018,05:00,23.0,0.0,5.2,5.2,0.0,38,0,995.9,0.000,1.4,360,6.1,3
01.04.2018,05:05,23.0,0.0,5.4,5.4,0.0,38,0,995.9,0.000,2.3,270,3.7,3
01.04.2018,05:10,23.0,0.0,5.4,5.4,0.0,38,0,996.1,0.000,2.6,225,2.1,3
01.04.2018,05:15,23.0,0.0,5.5,5.5,0.0,38,0,996.1,0.000,1.9,315,0.0,3
01.04.2018,05:20,23.0,0.0,5.5,5.5,0.0,38,0,996.1,0.000,1.9,67,2.7,3
01.04.2018,05:25,23.0,0.0,5.6,5.6,0.0,38,0,996.1,0.000,1.4,157,5.0,3
01.04.2018,05:30,23.0,0.0,5.6,5.6,0.0,38,0,996.4,0.000,1.4,337,3.2,3
01.04.2018,05:35,23.0,0.0,5.6,5.6,0.0,38,0,996.4,0.000,1.4,315,4.8,3
01.04.2018,05:40,23.0,0.0,5.7,5.7,0.0,38,0,996.4,0.000,2.4,247,6.0,3
01.04.2018,05:45,23.0,0.0,5.8,5.8,0.0,38,0,996.4,0.000,2.4,135,0.0,3
01.04.2018,05:50,23.0,0.0,5.8,5.8,0.0,38,0,996.9,0.000,1.8,112,3.5,2
01.04.2018,05:55,23.0,0.0,5.8,5.8,0.0,38,0,996.9,0.000,2.3,337,3.9,2
01.04.2018,06:00,23.0,0.0,5.7,5.7,0.0,38,0,996.9,0.000,1.9,337,0.0,2
01.04.2018,06:05,23.0,0.0,5.7,5.7,0.0,38,0,996.9,0.000,1.0,202,1.6,2
01.04.2018,06:10,22.9,0.0,5.6,5.6,0.0,38,0,996.3,0.000,1.0,270,5.0,2
01.04.2018,06:15,23.0,0.0,5.4,5.4,0.0,38,0,996.3,0.000,1.4,315,0.0,2
01.04.2018,06:20,23.0,0.0,5.2,5.2,0.0,38,0,996.3,0.687,1.6,202,0.0,2
01.04.2018,06:25,22.9,0.0,4.8,4.8,0.0,38,0,996.3,0.000,0.8,247,3.1,2
01.04.2018,06:30,22.9,0.0,4.6,4.6,0.0,38,0,996.8,0.000,0.8,315,2.1,2
01.04.2018,06:35,22.9,0.0,4.4,4.4,0.0,38,0,996.8,0.000,0.8,247,0.0,2
01.04.2018,06:40,22.9,0.0,4.3,4.3,0.0,38,0,996.8,0.000,0.5,247,0.0,2
01.04.2018,06:45,22.9,0.0,4.2,4.2,0.0,38,0,996.8,0.000,0.2,292,0.0,2
01.04.2018,06:50,22.8,0.0,4.2,4.2,0.0,38,0,996.9,0.000,0.0,270,0.0,2
01.04.2018,06:55,22.8,0.0,4.2,4.2,0.0,38,0,996.9,0.000,0.2,337,0.0,2
01.04.2018,07:00,22.8,0.0,4.2,4.2,0.0,38,0,996.9,0.000,0.3,270,1.6,2
01.04.2018,07:05,22.8,0.0,4.3,4.3,0.0,38,0,996.9,0.000,0.8,270,2.6,2
01.04.2018,07:10,22.8,0.0,4.3,4.3,0.0,38,0,997.2,0.000,1.1,292,4.5,2
01.04.2018,07:15,22.8,0.0,4.4,4.4,0.0,38,0,997.2,0.000,1.1,292,0.0,2
01.04.2018,07:20,22.8,0.0,4.4,4.4,0.0,38,0,997.2,0.000,1.1,247,2.1,2
01.04.2018,07:25,22.8,0.0,4.4,4.4,0.0,38,0,997.2,0.000,0.5,315,2.3,2
01.04.2018,07:30,22.8,0.0,4.5,4.5,0.0,38,0,997.4,0.000,1.1,45,3.1,2
01.04.2018,07:35,22.8,0.0,4.5,4.5,0.0,38,0,997.4,0.000,1.8,315,3.7,2
01.04.2018,07:40,22.8,0.0,4.6,4.6,0.0,38,0,997.4,0.000,1.6,315,0.0,2
01.04.2018,07:45,22.8,0.0,4.6,4.6,0.0,38,0,997.4,0.000,0.8,315,0.0,2
01.04.2018,07:50,22.8,0.0,4.6,4.6,0.0,38,0,997.4,0.000,0.5,315,2.6,2
01.04.2018,07:55,22.8,0.0,4.6,4.6,0.0,38,0,997.4,0.000,0.6,202,0.0,2
01.04.2018,08:00,22.9,0.0,4.6,4.6,0.0,38,0,997.4,0.000,1.1,270,3.2,2
01.04.2018,08:05,22.9,0.0,4.7,4.7,0.0,38,0,997.4,0.000,0.8,292,2.1,2
01.04.2018,08:10,22.9,0.0,4.7,4.7,0.0,38,0,997.8,0.000,0.6,270,2.7,2
01.04.2018,08:15,22.9,0.0,4.7,4.7,0.0,38,0,997.8,0.000,0.8,315,0.0,2
01.04.2018,08:20,22.9,0.0,4.7,4.7,0.0,38,0,997.8,0.000,0.6,202,0.0,2
01.04.2018,08:25,22.9,0.0,4.7,4.7,0.0,38,0,997.8,0.000,0.3,180,0.0,2
01.04.2018,08:30,22.9,0.0,4.7,4.7,0.0,38,0,998.2,0.000,0.5,225,2.9,2
01.04.2018,08:35,22.9,0.0,4.7,4.7,0.0,38,0,998.2,0.000,0.8,22,2.3,2
01.04.2018,08:40,22.9,0.0,4.7,4.7,0.0,38,0,998.2,0.000,1.4,67,0.0,2
01.04.2018,08:45,22.9,0.0,4.7,4.7,0.0,38,0,998.2,0.000,1.6,225,2.6,2
01.04.2018,08:50,22.9,0.0,4.8,4.8,0.0,38,0,998.4,0.000,1.4,247,3.1,2
01.04.2018,08:55,22.9,0.0,4.8,4.8,0.0,38,0,998.4,0.000,1.1,157,0.0,2
01.04.2018,09:00,22.9,0.0,4.8,4.8,0.0,38,0,998.4,0.000,0.8,270,0.0,2
01.04.2018,09:05,22.9,0.0,4.8,4.8,0.0,38,0,998.4,0.000,2.1,270,4.0,2
01.04.2018,09:10,22.9,0.0,4.9,4.9,0.0,38,0,998.6,0.000,2.7,315,5.5,2
01.04.2018,09:15,22.9,0.0,5.0,5.0,0.0,38,0,998.6,0.000,2.3,315,5.1,2
01.04.2018,09:20,22.9,0.0,5.1,5.1,0.0,38,0,998.6,0.000,1.8,135,0.0,2
01.04.2018,09:25,22.9,0.0,5.3,5.3,0.0,38,0,998.6,0.000,1.1,337,0.0,2
01.04.2018,09:30,22.9,0.0,5.3,5.3,0.0,38,0,998.8,0.000,0.8,225,0.0,2
01.04.2018,09:35,22.9,0.0,5.5,5.5,0.0,38,0,998.8,0.000,1.1,22,3.9,2
01.04.2018,09:40,22.9,0.0,5.6,5.6,0.0,38,0,998.8,0.000,1.9,225,5.6,2
01.04.2018,09:45,22.9,0.0,6.0,6.0,0.0,38,0,998.8,0.000,3.2,247,2.4,2
01.04.2018,09:50,22.9,0.0,6.4,6.4,0.0,38,0,998.9,0.000,3.4,135,2.4,2
01.04.2018,09:55,22.9,0.0,7.8,7.8,0.0,38,0,998.9,0.000,3.2,67,4.2,2
01.04.2018,10:00,22.9,0.0,7.6,7.6,0.0,38,0,998.9,0.000,3.9,315,5.8,2
01.04.2018,10:05,22.9,0.0,7.2,7.2,0.0,38,0,998.9,0.000,3.9,247,10.6,2
01.04.2018,10:10,22.9,0.0,7.3,7.3,0.0,38,0,999.1,0.000,2.9,360,10.3,2
01.04.2018,10:15,22.9,0.0,7.0,7.0,0.0,38,0,999.1,0.000,3.1,135,4.3,2
01.04.2018,10:20,22.9,0.0,6.7,6.7,0.0,38,0,999.1,0.000,3.5,337,3.4,2
01.04.2018,10:25,23.0,0.0,6.6,6.6,0.0,38,0,999.1,0.000,2.3,360,4.3,2
01.04.2018,10:30,22.9,0.0,6.4,6.4,0.0,38,0,999.2,0.000,3.2,315,5.3,2
01.04.2018,10:35,22.9,0.0,4.7,4.7,0.0,38,0,999.2,0.000,5.5,135,14.3,2
01.04.2018,10:40,23.0,0.0,3.9,3.9,0.0,38,0,999.2,0.687,6.3,270,7.2,2
01.04.2018,10:45,22.9,0.0,3.9,3.9,0.0,38,0,999.2,0.000,4.7,225,6.3,2
01.04.2018,10:50,23.0,0.0,4.2,4.2,0.0,38,0,999.8,0.000,4.3,22,3.1,2
01.04.2018,10:55,22.9,0.0,4.5,4.5,0.0,38,0,999.8,0.000,5.0,360,0.0,2
01.04.2018,11:00,23.0,0.0,5.3,5.3,0.0,38,0,999.8,0.000,3.7,270,2.4,2
01.04.2018,11:05,23.0,0.0,5.6,5.6,0.0,38,0,999.8,0.000,2.4,292,5.3,2
01.04.2018,11:10,23.0,0.0,5.8,5.8,0.0,38,0,1000.4,0.000,2.9,202,5.1,2
01.04.2018,11:15,23.0,0.0,6.2,6.2,0.0,38,0,1000.4,0.000,3.2,270,3.4,2
01.04.2018,11:20,22.9,0.0,6.7,6.7,0.0,38,0,1000.4,0.000,3.2,247,2.6,2
01.04.2018,11:25,22.9,0.0,7.1,7.1,0.0,38,0,1000.4,0.000,3.7,292,3.5,2
01.04.2018,11:30,23.0,0.0,7.1,7.1,0.0,38,0,1000.3,0.000,4.2,157,10.1,2
01.04.2018,11:35,23.0,0.0,6.6,6.6,0.0,38,0,1000.3,0.000,5.0,270,3.4,2
01.04.2018,11:40,23.0,0.0,6.6,6.6,0.0,38,0,1000.3,0.000,4.7,22,3.1,2
01.04.2018,11:45,23.0,0.0,7.2,7.2,0.0,38,0,1000.3,0.000,3.5,135,11.3,2
01.04.2018,11:50,23.0,0.0,7.0,7.0,0.0,38,0,1000.0,0.000,3.2,315,3.5,2
01.04.2018,11:55,22.8,0.0,7.4,7.4,0.0,37,0,1000.0,0.000,2.4,337,2.7,2
01.04.2018,12:00,22.7,0.0,7.8,7.8,0.0,37,0,1000.0,0.000,2.4,112,5.8,2
01.04.2018,12:05,22.5,0.0,8.0,8.0,0.0,37,0,1000.0,0.000,2.1,270,2.6,2
01.04.2018,12:10,22.5,0.0,8.0,8.0,0.0,37,0,999.7,0.000,2.9,270,9.5,2
01.04.2018,12:15,22.6,0.0,6.9,6.9,0.0,37,0,999.7,0.000,4.5,247,4.5,2
01.04.2018,12:20,22.8,0.0,5.9,5.9,0.0,37,0,999.7,0.000,5.8,22,12.9,2
01.04.2018,12:25,22.9,0.0,6.3,6.3,0.0,37,0,999.7,0.000,5.3,270,24.6,2
01.04.2018,12:30,23.0,0.0,7.2,7.2,0.0,37,0,1000.3,0.000,4.2,202,6.4,2
01.04.2018,12:35,23.2,0.0,8.0,8.0,0.0,37,0,1000.3,0.000,3.7,360,4.2,2
01.04.2018,12:40,23.2,0.0,8.0,8.0,0.0,37,0,1000.3,0.000,4.8,45,6.8,2
01.04.2018,12:45,23.2,0.0,7.7,7.7,0.0,37,0,1000.3,0.000,5.1,270,5.3,2
01.04.2018,12:50,23.4,0.0,8.6,8.6,0.0,37,0,1000.9,0.000,4.2,247,6.1,2
01.04.2018,12:55,23.5,0.0,8.8,8.8,0.0,37,0,1000.9,0.000,3.1,337,0.0,2
01.04.2018,13:00,23.5,0.0,9.0,9.0,0.0,37,0,1000.9,0.000,2.6,247,6.4,2
01.04.2018,13:05,23.5,0.0,10.0,10.0,0.0,37,0,1000.9,0.000,3.2,315,6.4,2
01.04.2018,13:10,23.5,0.0,10.9,10.9,0.0,37,0,1001.0,0.000,4.7,292,9.7,2
01.04.2018,13:15,23.4,0.0,11.1,11.1,0.0,37,0,1001.0,0.000,5.3,135,7.9,2
01.04.2018,13:20,23.4,0.0,10.8,10.8,0.0,37,0,1001.0,0.000,5.8,202,4.0,2
01.04.2018,13:25,23.4,0.0,10.3,10.3,0.0,37,0,1001.0,0.000,5.3,247,3.2,2
01.04.2018,13:30,23.4,0.0,10.2,10.2,0.0,37,0,1000.8,0.000,5.1,180,5.3,2
01.04.2018,13:35,23.2,0.0,10.0,10.0,0.0,37,0,1000.8,0.000,5.0,45,3.4,2
01.04.2018,13:40,23.2,0.0,10.1,10.1,0.0,37,0,1000.8,0.000,4.3,112,2.6,2
01.04.2018,13:45,23.3,0.0,9.8,9.8,0.0,37,0,1000.8,0.000,4.8,292,7.6,2
01.04.2018,13:50,23.2,0.0,9.5,9.5,0.0,37,0,1000.8,0.000,5.3,292,12.2,2
01.04.2018,13:55,23.2,0.0,7.6,5.8,0.0,37,0,1000.8,0.687,8.7,270,27.5,2
01.04.2018,14:00,23.2,0.0,4.9,3.4,0.0,37,0,1000.8,0.000,9.8,270,10.6,2
01.04.2018,14:05,23.2,0.0,3.3,3.3,0.0,37,0,1000.8,0.000,6.0,22,3.1,2
01.04.2018,14:10,23.2,0.0,3.9,3.9,0.0,37,0,1001.1,0.000,4.5,247,6.9,2
01.04.2018,14:15,23.2,0.0,5.4,5.4,0.0,37,0,1001.1,0.000,3.2,225,3.1,2
01.04.2018,14:20,23.2,0.0,5.8,5.8,0.0,38,0,1001.1,0.000,3.1,292,4.2,2
01.04.2018,14:25,23.2,0.0,7.0,7.0,0.0,38,0,1001.1,0.000,2.6,202,5.5,2
01.04.2018,14:30,23.2,0.0,8.0,8.0,0.0,38,0,1001.4,0.000,3.1,270,4.7,2
01.04.2018,14:35,23.1,0.0,8.4,8.4,0.0,38,0,1001.4,0.000,4.8,337,6.1,2
01.04.2018,14:40,23.1,0.0,8.8,8.8,0.0,38,0,1001.4,0.000,5.5,247,8.0,2
01.04.2018,14:45,23.1,0.0,8.6,8.6,0.0,38,0,1001.4,0.000,5.5,22,18.2,2
01.04.2018,14:50,23.1,0.0,8.4,8.4,0.0,37,0,1001.3,0.000,5.6,315,4.2,2
01.04.2018,14:55,23.1,0.0,8.8,8.8,0.0,37,0,1001.3,0.000,6.6,157,12.9,2
01.04.2018,15:00,23.1,0.0,8.9,8.9,0.0,37,0,1001.3,0.000,5.8,112,4.0,2
01.04.2018,15:05,23.0,0.0,8.2,8.2,0.0,38,0,1001.3,0.000,5.6,225,6.8,2
01.04.2018,15:10,23.1,0.0,7.9,7.9,0.0,38,0,1001.2,0.000,5.5,315,8.2,2
01.04.2018,15:15,23.0,0.0,7.9,7.9,0.0,38,0,1001.2,0.000,5.5,157,2.6,2
01.04.2018,15:20,23.0,0.0,8.1,8.1,0.0,38,0,1001.2,0.000,5.0,337,5.0,2
01.04.2018,15:25,23.0,0.0,7.9,7.9,0.0,38,0,1001.2,0.000,5.6,315,19.8,2
01.04.2018,15:30,23.0,0.0,7.9,7.9,0.0,38,0,1001.2,0.000,6.8,315,6.1,2
01.04.2018,15:35,23.0,0.0,8.2,7.7,0.0,37,0,1001.2,0.000,8.0,225,10.9,2
01.04.2018,15:40,23.0,0.0,7.7,7.7,0.0,37,0,1001.2,0.000,8.7,180,12.1,2
01.04.2018,15:45,22.9,0.0,8.2,7.9,0.0,37,0,1001.2,0.000,7.9,315,9.7,2
01.04.2018,15:50,22.9,0.0,8.3,8.3,0.0,37,0,1001.3,0.000,6.1,112,2.4,2
01.04.2018,15:55,23.0,0.0,7.6,7.6,0.0,38,0,1001.3,0.000,6.4,292,18.7,2
01.04.2018,16:00,23.0,0.0,6.2,6.2,0.0,37,0,1001.3,0.000,7.2,22,9.8,2
01.04.2018,16:05,23.0,0.0,5.4,4.2,0.0,38,0,1001.3,0.000,7.7,292,7.2,2
01.04.2018,16:10,22.9,0.0,4.5,4.5,0.0,38,0,1001.4,0.000,5.0,247,1.6,2
01.04.2018,16:15,23.0,0.0,4.4,4.4,0.0,38,0,1001.4,0.000,4.8,315,5.0,2
01.04.2018,16:20,22.9,0.0,4.7,4.7,0.0,38,0,1001.4,0.000,4.2,112,2.4,2
01.04.2018,16:25,22.9,0.0,4.7,4.7,0.0,38,0,1001.4,0.000,4.0,270,1.9,2
01.04.2018,16:30,22.9,0.0,4.8,4.8,0.0,38,0,1001.9,0.000,4.2,247,4.0,2
01.04.2018,16:35,22.9,0.0,5.3,5.3,0.0,38,0,1001.9,0.000,4.2,247,10.8,2
01.04.2018,16:40,22.9,0.0,5.3,5.3,0.0,38,0,1001.9,0.000,4.8,247,6.3,2
01.04.2018,16:45,22.9,0.0,5.4,5.4,0.0,38,0,1001.9,0.000,5.0,225,4.3,2
01.04.2018,16:50,22.9,0.0,6.2,6.2,0.0,38,0,1001.9,0.000,4.2,112,0.0,2
01.04.2018,16:55,22.9,0.0,6.9,6.9,0.0,38,0,1001.9,0.000,4.5,157,6.9,2
01.04.2018,17:00,23.0,0.0,6.5,6.5,0.0,38,0,1001.9,0.000,4.8,270,5.6,2
01.04.2018,17:05,22.9,0.0,6.4,6.4,0.0,38,0,1001.9,0.000,4.5,270,6.3,2
01.04.2018,17:10,22.9,0.0,7.1,7.1,0.0,38,0,1001.9,0.000,3.1,360,3.1,2
01.04.2018,17:15,22.9,0.0,8.6,8.6,0.0,38,0,1001.9,0.000,4.3,180,9.0,2
01.04.2018,17:20,22.9,0.0,8.2,8.2,0.0,38,0,1001.9,0.000,5.6,247,15.6,2
01.04.2018,17:25,22.9,0.0,6.8,6.8,0.0,37,0,1001.9,0.000,7.2,225,6.6,2
01.04.2018,17:30,22.9,0.0,6.7,6.7,0.0,38,0,1002.0,0.000,6.6,202,6.4,2
01.04.2018,17:35,22.9,0.0,6.7,6.7,0.0,38,0,1002.0,0.000,5.1,225,11.3,2
01.04.2018,17:40,22.9,0.0,6.7,6.7,0.0,38,0,1002.0,0.000,5.0,180,5.5,2
01.04.2018,17:45,22.9,0.0,6.9,6.9,0.0,38,0,1002.0,0.000,4.0,315,9.8,2
01.04.2018,17:50,22.9,0.0,7.0,7.0,0.0,38,0,1001.8,0.000,3.7,247,5.8,2
01.04.2018,17:55,22.9,0.0,6.8,6.8,0.0,38,0,1001.8,0.000,3.7,315,6.1,2
01.04.2018,18:00,22.9,0.0,6.9,6.9,0.0,38,0,1001.8,0.000,3.7,247,5.5,2
01.04.2018,18:05,22.9,0.0,6.8,6.8,0.0,38,0,1001.8,0.000,4.3,270,10.0,2
01.04.2018,18:10,22.8,0.0,6.6,6.6,0.0,38,0,1001.9,0.000,5.3,270,4.8,2
01.04.2018,18:15,22.9,0.0,6.3,6.3,0.0,38,0,1001.9,0.000,6.0,360,5.8,2
01.04.2018,18:20,22.9,0.0,6.7,6.7,0.0,38,0,1001.9,0.000,4.8,360,1.6,2
01.04.2018,18:25,22.9,0.0,7.1,7.1,0.0,38,0,1001.9,0.000,3.4,247,3.7,2
01.04.2018,18:30,22.8,0.0,6.9,6.9,0.0,38,0,1002.2,0.000,3.1,180,5.3,2
01.04.2018,18:35,22.8,0.0,6.8,6.8,0.0,38,0,1002.2,0.000,3.1,270,2.7,2
01.04.2018,18:40,22.8,0.0,6.6,6.6,0.0,38,0,1002.2,0.000,2.9,45,2.1,2
01.04.2018,18:45,22.8,0.0,5.4,5.4,0.0,38,0,1002.2,0.000,4.3,270,10.3,2
01.04.2018,18:50,22.8,0.0,4.9,4.9,0.0,38,0,1002.8,0.000,5.0,247,6.1,1
01.04.2018,18:55,22.8,0.0,4.5,4.5,0.0,38,0,1002.8,0.000,5.0,112,5.0,1
01.04.2018,19:00,22.8,0.0,4.7,4.7,0.0,38,0,1002.8,0.000,4.2,247,4.7,1
01.04.2018,19:05,22.8,0.0,5.2,5.2,0.0,38,0,1002.8,0.000,2.6,22,2.1,1
01.04.2018,19:10,22.8,0.0,5.2,5.2,0.0,38,0,1003.1,0.000,1.6,112,0.0,1
01.04.2018,19:15,22.8,0.0,5.2,5.2,0.0,38,0,1003.1,0.000,1.3,112,2.3,1
01.04.2018,19:20,22.8,0.0,5.2,5.2,0.0,38,0,1003.1,0.000,1.9,180,0.0,1
01.04.2018,19:25,22.8,0.0,5.2,5.2,0.0,38,0,1003.1,0.000,1.9,112,0.0,1
01.04.2018,19:30,22.8,0.0,5.3,5.3,0.0,38,0,1003.4,0.000,1.6,315,1.8,1
01.04.2018,19:35,22.8,0.0,5.2,5.2,0.0,38,0,1003.4,0.000,1.8,45,1.9,1
01.04.2018,19:40,22.8,0.0,5.2,5.2,0.0,38,0,1003.4,0.000,1.1,315,0.0,1
01.04.2018,19:45,22.8,0.0,5.2,5.2,0.0,38,0,1003.4,0.000,0.6,247,3.2,1
01.04.2018,19:50,22.8,0.0,5.2,5.2,0.0,38,0,1003.4,0.000,0.8,225,3.1,1
01.04.2018,19:55,22.8,0.0,5.3,5.3,0.0,38,0,1003.4,0.000,0.8,270,0.0,1
01.04.2018,20:00,22.8,0.0,5.3,5.3,0.0,38,0,1003.4,0.000,1.0,112,0.0,1
01.04.2018,20:05,22.8,0.0,5.3,5.3,0.0,38,0,1003.4,0.000,0.5,360,0.0,1
01.04.2018,20:10,22.8,0.0,5.3,5.3,0.0,38,0,1003.7,0.000,0.2,180,2.7,1
01.04.2018,20:15,22.8,0.0,5.4,5.4,0.0,38,0,1003.7,0.000,0.8,180,5.8,1
01.04.2018,20:20,22.9,0.0,5.4,5.4,0.0,39,0,1003.7,0.000,1.0,270,0.0,1
01.04.2018,20:25,23.0,0.0,5.4,5.4,0.0,39,0,1003.7,0.000,2.1,270,6.9,1
01.04.2018,20:30,23.0,0.0,5.5,5.5,0.0,39,0,1004.2,0.000,2.1,337,0.0,1
01.04.2018,20:35,23.1,0.0,5.3,5.3,0.0,39,0,1004.2,0.000,3.1,157,2.7,1
01.04.2018,20:40,23.2,0.0,5.1,5.1,0.0,39,0,1004.2,0.000,2.9,270,0.0,1
01.04.2018,20:45,23.2,0.0,4.9,4.9,0.0,39,0,1004.2,0.000,2.6,270,2.1,1
01.04.2018,20:50,23.2,0.0,4.8,4.8,0.0,39,0,1004.6,0.000,2.7,315,3.5,1
01.04.2018,20:55,23.2,0.0,4.7,4.7,0.0,39,0,1004.6,0.000,3.2,247,7.7,1
01.04.2018,21:00,23.3,0.0,4.2,4.2,0.0,39,0,1004.6,0.000,4.0,292,6.6,1
01.04.2018,21:05,23.2,0.0,4.6,4.6,0.0,39,0,1004.6,0.000,3.4,225,4.8,1
01.04.2018,21:10,23.4,0.0,4.7,4.7,0.0,39,0,1005.0,0.000,2.7,45,0.0,1
01.04.2018,21:15,23.4,0.0,4.6,4.6,0.0,39,0,1005.0,0.000,2.4,292,4.2,1
01.04.2018,21:20,23.4,0.0,4.4,4.4,0.0,39,0,1005.0,0.000,2.6,180,4.8,1
01.04.2018,21:25,23.5,0.0,4.4,4.4,0.0,39,0,1005.0,0.000,2.9,360,2.9,1
01.04.2018,21:30,23.5,0.0,4.4,4.4,0.0,39,0,1005.3,0.000,2.4,135,2.7,1
01.04.2018,21:35,23.6,0.0,4.2,4.2,0.0,39,0,1005.3,0.000,1.8,180,6.0,1
01.04.2018,21:40,23.6,0.0,4.0,4.0,0.0,39,0,1005.3,0.000,1.4,112,0.0,1
01.04.2018,21:45,23.6,0.0,3.6,3.6,0.0,39,0,1005.3,0.000,1.3,315,3.4,1
01.04.2018,21:50,23.5,0.0,3.8,3.8,0.0,39,0,1005.6,0.000,1.3,225,4.3,1
01.04.2018,21:55,23.5,0.0,4.1,4.1,0.0,39,0,1005.6,0.000,2.4,270,4.3,1
01.04.2018,22:00,23.5,0.0,4.2,4.2,0.0,39,0,1005.6,0.000,2.4,315,0.0,1
01.04.2018,22:05,23.4,0.0,4.3,4.3,0.0,39,0,1005.6,0.000,1.8,157,4.2,1
01.04.2018,22:10,23.4,0.0,4.3,4.3,0.0,39,0,1005.6,0.000,1.6,315,2.1,1
01.04.2018,22:15,23.4,0.0,4.3,4.3,0.0,39,0,1005.6,0.000,1.9,270,2.1,1
01.04.2018,22:20,23.2,0.0,4.2,4.2,0.0,39,0,1005.6,0.000,1.3,157,2.1,1
01.04.2018,22:25,23.3,0.0,4.2,4.2,0.0,39,0,1005.6,0.000,1.3,247,3.2,1
01.04.2018,22:30,23.3,0.0,4.2,4.2,0.0,39,0,1005.9,0.000,1.9,225,6.1,1
01.04.2018,22:35,23.2,0.0,4.2,4.2,0.0,39,0,1005.9,0.000,2.1,270,1.6,1
01.04.2018,22:40,23.2,0.0,4.2,4.2,0.0,39,0,1005.9,0.000,2.1,225,3.1,1
01.04.2018,22:45,23.2,0.0,4.2,4.2,0.0,39,0,1005.9,0.000,2.1,225,3.2,1
01.04.2018,22:50,23.2,0.0,4.2,4.2,0.0,39,0,1005.8,0.000,1.9,270,1.6,1
01.04.2018,22:55,23.2,0.0,4.2,4.2,0.0,39,0,1005.8,0.000,1.8,270,2.6,1
01.04.2018,23:00,23.2,0.0,4.4,4.4,0.0,39,0,1005.8,0.000,1.6,315,1.6,1
01.04.2018,23:05,23.1,0.0,4.6,4.6,0.0,39,0,1005.8,0.000,1.9,67,0.0,1
01.04.2018,23:10,23.1,0.0,4.7,4.7,0.0,39,0,1005.8,0.000,1.8,292,0.0,1
01.04.2018,23:15,23.1,0.0,4.7,4.7,0.0,39,0,1005.8,0.000,1.0,292,0.0,1
01.04.2018,23:20,23.1,0.0,4.7,4.7,0.0,39,0,1005.8,0.000,0.6,270,2.1,1
01.04.2018,23:25,23.1,0.0,4.7,4.7,0.0,39,0,1005.8,0.000,1.1,247,0.0,1
01.04.2018,23:30,23.1,0.0,4.7,4.7,0.0,39,0,1006.0,0.000,1.6,270,2.4,1
01.04.2018,23:35,23.0,0.0,4.7,4.7,0.0,39,0,1006.0,0.000,1.8,180,3.1,1
01.04.2018,23:40,23.0,0.0,4.7,4.7,0.0,39,0,1006.0,0.000,1.3,225,0.0,1
01.04.2018,23:45,23.0,0.0,4.7,4.7,0.0,39,0,1006.0,0.000,1.3,135,2.9,1
01.04.2018,23:50,23.0,0.0,4.7,4.7,0.0,39,0,1005.8,0.000,1.1,337,0.0,1
01.04.2018,23:55,23.0,0.0,4.7,4.7,0.0,39,0,1005.8,0.000,1.0,225,0.0,1
02.04.2018,00:00,23.0,0.0,4.7,4.7,0.0,39,0,1005.8,0.000,1.3,202,0.0,1
02.04.2018,00:01,23.0,0.0,4.7,4.7,0.0,39,0,1005.8,0.000,1.3,202,0.0,1
02.04.2018,00:05,23.0,0.0,4.7,4.7,0.0,39,0,1005.8,0.000,1.3,292,0.0,1
02.04.2018,00:10,23.0,0.0,4.7,4.7,0.0,39,0,1005.8,0.000,1.3,315,3.4,1
02.04.2018,00:15,23.0,0.0,4.7,4.7,0.0,39,0,1005.8,0.000,1.4,292,0.0,1
02.04.2018,00:20,23.0,0.0,4.8,4.8,0.0,39,0,1005.8,0.000,1.8,270,3.1,1
02.04.2018,00:25,23.0,0.0,4.8,4.8,0.0,39,0,1005.8,0.000,1.4,22,6.3,1
02.04.2018,00:30,22.9,0.0,4.8,4.8,0.0,39,0,1006.5,0.000,1.0,337,0.0,1
02.04.2018,00:35,22.9,0.0,4.8,4.8,0.0,39,0,1006.5,0.000,0.8,247,3.5,1
02.04.2018,00:40,22.9,0.0,4.8,4.8,0.0,39,0,1006.5,0.000,1.0,247,1.9,1
02.04.2018,00:45,22.9,0.0,4.7,4.7,0.0,39,0,1006.5,0.000,1.1,270,0.0,1
02.04.2018,00:50,22.9,0.0,4.7,4.7,0.0,39,0,1006.1,0.000,0.6,67,0.0,1
02.04.2018,00:55,22.9,0.0,4.7,4.7,0.0,39,0,1006.1,0.000,0.2,225,0.0,1
02.04.2018,01:00,22.9,0.0,4.7,4.7,0.0,39,0,1006.1,0.000,0.5,270,0.0,1
02.04.2018,01:05,22.9,0.0,4.7,4.7,0.0,39,0,1006.1,0.000,0.6,315,1.8,1
02.04.2018,01:10,22.9,0.0,4.7,4.7,0.0,39,0,1006.0,0.000,0.5,315,0.0,1
02.04.2018,01:15,22.8,0.0,4.7,4.7,0.0,39,0,1006.0,0.000,0.2,292,0.0,1
02.04.2018,01:20,22.8,0.0,4.6,4.6,0.0,39,0,1006.0,0.000,0.2,202,0.0,1
02.04.2018,01:25,22.9,0.0,4.4,4.4,0.0,39,0,1006.0,0.000,0.2,270,0.0,1
02.04.2018,01:30,22.9,0.0,4.3,4.3,0.0,39,0,1006.0,0.000,0.2,270,1.6,1
02.04.2018,01:35,22.8,0.0,4.0,4.0,0.0,39,0,1006.0,0.000,0.0,225,0.0,1
02.04.2018,01:40,22.8,0.0,3.9,3.9,0.0,39,0,1006.0,0.000,0.0,270,0.0,1
02.04.2018,01:45,22.8,0.0,3.7,3.7,0.0,39,0,1006.0,0.000,0.5,270,6.1,1
02.04.2018,01:50,22.8,0.0,3.7,3.7,0.0,39,0,1006.1,0.000,0.5,315,0.0,1
02.04.2018,01:55,22.8,0.0,3.7,3.7,0.0,39,0,1006.1,0.000,0.6,135,0.0,1
02.04.2018,02:00,22.8,0.0,3.6,3.6,0.0,39,0,1006.1,0.000,0.2,135,0.0,1
02.04.2018,02:05,22.8,0.0,3.5,3.5,0.0,39,0,1006.1,0.000,0.2,225,0.0,1
02.04.2018,02:10,22.8,0.0,3.5,3.5,0.0,39,0,1005.9,0.000,0.2,315,0.0,1
02.04.2018,02:15,22.8,0.0,3.7,3.7,0.0,39,0,1005.9,0.000,0.2,247,0.0,1
02.04.2018,02:20,22.8,0.0,3.8,3.8,0.0,39,0,1005.9,0.000,0.2,247,0.0,1
02.04.2018,02:25,22.8,0.0,3.8,3.8,0.0,39,0,1005.9,0.000,0.0,247,0.0,1
02.04.2018,02:30,22.8,0.0,3.8,3.8,0.0,39,0,1005.8,0.000,0.0,270,1.9,1
02.04.2018,02:35,22.8,0.0,3.6,3.6,0.0,39,0,1005.8,0.000,0.2,270,0.0,1
02.04.2018,02:40,22.8,0.0,3.4,3.4,0.0,39,0,1005.8,0.000,0.2,292,0.0,1
02.04.2018,02:45,22.8,0.0,3.3,3.3,0.0,39,0,1005.8,0.000,0.2,337,1.6,1
02.04.2018,02:50,22.8,0.0,3.4,3.4,0.0,39,0,1005.8,0.000,0.2,202,0.0,1
02.04.2018,02:55,22.8,0.0,3.3,3.3,0.0,39,0,1005.8,0.000,0.2,247,0.0,1
02.04.2018,03:00,22.8,0.0,3.1,3.1,0.0,39,0,1005.8,0.000,0.0,247,0.0,1
02.04.2018,03:05,22.8,0.0,2.8,2.8,0.0,39,0,1005.8,0.000,0.0,247,0.0,1
02.04.2018,03:10,22.8,0.0,2.6,2.6,0.0,39,0,1006.1,0.000,0.0,247,0.0,1
02.04.2018,03:15,22.8,0.0,2.5,2.5,0.0,39,0,1006.1,0.000,0.0,247,0.0,1
02.04.2018,03:20,22.8,0.0,2.4,2.4,0.0,39,0,1006.1,0.000,0.0,247,0.0,1
02.04.2018,03:25,22.8,0.0,2.3,2.3,0.0,39,0,1006.1,0.000,0.0,247,0.0,1
02.04.2018,03:30,22.8,0.0,2.4,2.4,0.0,39,0,1005.5,0.000,0.0,247,0.0,1
02.04.2018,03:35,22.7,0.0,2.4,2.4,0.0,39,0,1005.5,0.000,0.0,247,0.0,1
02.04.2018,03:40,22.8,0.0,2.5,2.5,0.0,39,0,1005.5,0.000,0.0,247,0.0,1